OPT320 LBSF-UGTB

Flight info

Callsign OPT320
Flight time 2h 17m
Altitude 41000
Route GAPVO T228 BGS Y189 UDROS UM859 KARDE UN644 ROLIN N644 LAGAS
Aircraft CL60/M-SBDE1E2E3FGHIJ1J4J5J7M3RWXYZ/LB1V1D1

Departure

Time 2026-04-22 22:58
Airport Sofia Airport (LBSF)

Arrival

Time 2026-04-23 01:15
Airport Tbilisi International Airport (UGTB)
Time Latitude Longitude Altitude Speed Heading
2026-04-22 22:52 42.69510 23.40488 1745 ft 9 kts 27°
2026-04-22 22:52 42.69523 23.40580 1745 ft 11 kts 95°
2026-04-22 22:53 42.69518 23.40706 1745 ft 14 kts 91°
2026-04-22 22:53 42.69507 23.40855 1745 ft 17 kts 96°
2026-04-22 22:53 42.69496 23.41028 1745 ft 19 kts 94°
2026-04-22 22:53 42.69486 23.41221 1745 ft 21 kts 92°
2026-04-22 22:54 42.69472 23.41434 1745 ft 23 kts 95°
2026-04-22 22:54 42.69459 23.41661 1745 ft 25 kts 94°
2026-04-22 22:54 42.69444 23.41905 1745 ft 26 kts 94°
2026-04-22 22:54 42.69429 23.42162 1745 ft 27 kts 95°
2026-04-22 22:55 42.69415 23.42400 1745 ft 22 kts 95°
2026-04-22 22:55 42.69402 23.42622 1745 ft 24 kts 94°
2026-04-22 22:55 42.69371 23.43117 1745 ft 27 kts 96°
2026-04-22 22:56 42.69357 23.43383 1745 ft 28 kts 95°
2026-04-22 22:56 42.69340 23.43660 1745 ft 29 kts 95°
2026-04-22 22:56 42.69329 23.43876 1745 ft 15 kts 91°
2026-04-22 22:56 42.69413 23.43948 1745 ft 17 kts 358°
2026-04-22 22:57 42.69517 23.43884 1745 ft 19 kts 272°
2026-04-22 22:57 42.69531 23.43609 1745 ft 52 kts 274°
2026-04-22 22:57 42.69582 23.42744 1746 ft 130 kts 273°
2026-04-22 22:57 42.69666 23.41347 2083 ft 163 kts 274°
2026-04-22 22:58 42.69783 23.39763 2750 ft 182 kts 281°
2026-04-22 22:58 42.70188 23.37986 3187 ft 206 kts 298°
2026-04-22 22:58 42.71030 23.36394 3753 ft 208 kts 319°
2026-04-22 22:58 42.72221 23.35321 4342 ft 208 kts 339°
2026-04-22 22:59 42.73617 23.34877 4949 ft 210 kts 353°
2026-04-22 22:59 42.75121 23.34637 5630 ft 228 kts 354°
2026-04-22 22:59 42.76736 23.34373 6442 ft 242 kts 354°
2026-04-22 22:59 42.78437 23.34093 7351 ft 251 kts 353°
2026-04-22 23:00 42.80187 23.33804 8313 ft 257 kts 353°
2026-04-22 23:00 42.81949 23.33511 9278 ft 262 kts 354°
2026-04-22 23:00 42.83754 23.33212 10279 ft 265 kts 353°
2026-04-22 23:00 42.85595 23.32917 11266 ft 277 kts 355°
2026-04-22 23:01 42.87580 23.33313 12063 ft 304 kts 23°
2026-04-22 23:01 42.88209 23.33782 12364 ft 311 kts 33°
2026-04-22 23:02 42.89574 23.35685 13244 ft 329 kts 56°
2026-04-22 23:02 42.90295 23.38675 14344 ft 343 kts 84°
2026-04-22 23:02 42.89920 23.41880 15426 ft 354 kts 112°
2026-04-22 23:03 42.88543 23.44713 16466 ft 362 kts 130°
2026-04-22 23:03 42.86898 23.47328 17465 ft 370 kts 131°
2026-04-22 23:03 42.85216 23.49995 18533 ft 374 kts 132°
2026-04-22 23:03 42.83522 23.52693 19591 ft 378 kts 132°
2026-04-22 23:04 42.81814 23.55428 20563 ft 384 kts 132°
2026-04-22 23:04 42.80956 23.56808 21013 ft 387 kts 132°
2026-04-22 23:04 42.79095 23.59823 21936 ft 393 kts 131°
2026-04-22 23:04 42.77364 23.62750 22807 ft 399 kts 130°
2026-04-22 23:05 42.75632 23.65783 23660 ft 404 kts 131°
2026-04-22 23:05 42.73901 23.68816 24447 ft 409 kts 131°
2026-04-22 23:05 42.72118 23.71937 25147 ft 415 kts 131°
2026-04-22 23:05 42.70362 23.75012 25767 ft 420 kts 131°
2026-04-22 23:06 42.68610 23.78253 26388 ft 426 kts 124°
2026-04-22 23:06 42.67356 23.81922 26916 ft 436 kts 109°
2026-04-22 23:06 42.66925 23.86011 27397 ft 445 kts 90°
2026-04-22 23:06 42.67090 23.90262 27806 ft 452 kts 86°
2026-04-22 23:07 42.67288 23.94599 28291 ft 457 kts 87°
2026-04-22 23:07 42.67479 23.98899 28810 ft 460 kts 86°
2026-04-22 23:07 42.67670 24.03268 29276 ft 465 kts 86°
2026-04-22 23:07 42.67860 24.07650 29686 ft 469 kts 86°
2026-04-22 23:08 42.68050 24.12055 30065 ft 472 kts 86°
2026-04-22 23:08 42.68136 24.16531 30426 ft 476 kts 91°
2026-04-22 23:08 42.68058 24.21029 30723 ft 481 kts 91°
2026-04-22 23:08 42.67971 24.25578 31037 ft 485 kts 91°
2026-04-22 23:09 42.67884 24.30168 31381 ft 487 kts 91°
2026-04-22 23:09 42.67793 24.34801 31685 ft 490 kts 91°
2026-04-22 23:09 42.67702 24.39405 31999 ft 492 kts 91°
2026-04-22 23:09 42.67607 24.44101 32323 ft 492 kts 91°
2026-04-22 23:10 42.67511 24.48739 32555 ft 496 kts 91°
2026-04-22 23:10 42.67412 24.53454 32794 ft 498 kts 90°
2026-04-22 23:10 42.67312 24.58145 33124 ft 498 kts 91°
2026-04-22 23:10 42.67209 24.62866 33495 ft 496 kts 90°
2026-04-22 23:11 42.67104 24.67576 33905 ft 493 kts 91°
2026-04-22 23:11 42.66999 24.72208 34313 ft 490 kts 91°
2026-04-22 23:11 42.66893 24.76849 34715 ft 488 kts 91°
2026-04-22 23:11 42.66783 24.81549 35080 ft 487 kts 91°
2026-04-22 23:12 42.66675 24.86085 35436 ft 485 kts 91°
2026-04-22 23:12 42.66565 24.90642 35903 ft 480 kts 91°
2026-04-22 23:12 42.66454 24.95160 36390 ft 475 kts 91°
2026-04-22 23:12 42.66342 24.99653 36833 ft 470 kts 91°
2026-04-22 23:13 42.66229 25.04116 37175 ft 468 kts 91°
2026-04-22 23:13 42.66117 25.08498 37463 ft 467 kts 91°
2026-04-22 23:13 42.66002 25.12937 37719 ft 467 kts 91°
2026-04-22 23:13 42.65885 25.17338 37946 ft 467 kts 91°
2026-04-22 23:14 42.65767 25.21759 38171 ft 468 kts 91°
2026-04-22 23:14 42.65648 25.26125 38400 ft 467 kts 91°
2026-04-22 23:14 42.65526 25.30562 38620 ft 468 kts 91°
2026-04-22 23:14 42.65403 25.34956 38841 ft 468 kts 91°
2026-04-22 23:15 42.65278 25.39375 39049 ft 468 kts 91°
2026-04-22 23:15 42.65150 25.43818 39238 ft 469 kts 91°
2026-04-22 23:15 42.65022 25.48237 39442 ft 469 kts 91°
2026-04-22 23:15 42.64891 25.52673 39642 ft 468 kts 91°
2026-04-22 23:16 42.64759 25.57068 39841 ft 468 kts 91°
2026-04-22 23:16 42.64624 25.61512 40020 ft 468 kts 91°
2026-04-22 23:16 42.64491 25.65887 40194 ft 468 kts 92°
2026-04-22 23:16 42.64352 25.70342 40315 ft 468 kts 92°
2026-04-22 23:17 42.64213 25.74769 40457 ft 469 kts 92°
2026-04-22 23:17 42.64073 25.79172 40566 ft 469 kts 92°
2026-04-22 23:17 42.63929 25.83641 40703 ft 469 kts 92°
2026-04-22 23:17 42.63784 25.88052 40828 ft 469 kts 92°
2026-04-22 23:18 42.63638 25.92483 40945 ft 470 kts 92°
2026-04-22 23:18 42.63490 25.96927 41038 ft 470 kts 92°
2026-04-22 23:18 42.63187 26.05830 41044 ft 476 kts 92°
2026-04-22 23:19 42.62872 26.14900 41053 ft 482 kts 92°
2026-04-22 23:19 42.62548 26.23999 41065 ft 486 kts 92°
2026-04-22 23:20 42.62215 26.33180 41058 ft 489 kts 92°
2026-04-22 23:20 42.61869 26.42461 41050 ft 492 kts 92°
2026-04-22 23:21 42.61516 26.51767 41052 ft 495 kts 92°
2026-04-22 23:21 42.61154 26.61073 41070 ft 495 kts 92°
2026-04-22 23:22 42.60782 26.70454 41068 ft 494 kts 93°
2026-04-22 23:22 42.60410 26.79653 41061 ft 479 kts 93°
2026-04-22 23:23 42.60194 26.88639 41069 ft 469 kts 91°
2026-04-22 23:23 42.60018 26.97434 41063 ft 467 kts 91°
2026-04-22 23:24 42.59833 27.06305 41068 ft 467 kts 91°
2026-04-22 23:24 42.59642 27.15122 41070 ft 467 kts 91°
2026-04-22 23:25 42.59444 27.23941 41065 ft 467 kts 91°
2026-04-22 23:25 42.59240 27.32752 41065 ft 467 kts 91°
2026-04-22 23:26 42.59029 27.41558 41073 ft 467 kts 91°
2026-04-22 23:26 42.58812 27.50295 41072 ft 467 kts 91°
2026-04-22 23:27 42.59193 27.59032 41073 ft 466 kts 81°
2026-04-22 23:27 42.60032 27.67708 41072 ft 465 kts 82°
2026-04-22 23:28 42.60861 27.76440 41064 ft 465 kts 82°
2026-04-22 23:28 42.61673 27.85061 41063 ft 465 kts 82°
2026-04-22 23:29 42.62480 27.93738 41067 ft 465 kts 82°
2026-04-22 23:29 42.63282 28.02452 41071 ft 464 kts 82°
2026-04-22 23:30 42.64072 28.11121 41068 ft 465 kts 82°
2026-04-22 23:30 42.64122 28.19844 41070 ft 465 kts 92°
2026-04-22 23:31 42.63808 28.28587 41067 ft 466 kts 92°
2026-04-22 23:31 42.63492 28.37326 41070 ft 466 kts 92°
2026-04-22 23:32 42.63169 28.46093 41063 ft 466 kts 92°
2026-04-22 23:32 42.62840 28.54856 41068 ft 466 kts 92°
2026-04-22 23:33 42.62507 28.63567 41068 ft 466 kts 92°
2026-04-22 23:33 42.62165 28.72332 41067 ft 466 kts 93°
2026-04-22 23:34 42.61818 28.81084 41075 ft 466 kts 93°
2026-04-22 23:34 42.61462 28.89869 41073 ft 466 kts 93°
2026-04-22 23:35 42.61103 28.98594 41074 ft 466 kts 93°
2026-04-22 23:35 42.60736 29.07341 41068 ft 467 kts 93°
2026-04-22 23:36 42.60362 29.16102 41072 ft 466 kts 93°
2026-04-22 23:36 42.59981 29.24871 41062 ft 467 kts 94°
2026-04-22 23:37 42.59593 29.33638 41061 ft 466 kts 93°
2026-04-22 23:37 42.59200 29.42367 41054 ft 467 kts 94°
2026-04-22 23:38 42.58798 29.51157 41060 ft 467 kts 94°
2026-04-22 23:38 42.58686 29.59881 41058 ft 467 kts 86°
2026-04-22 23:39 42.59029 29.68671 41059 ft 467 kts 86°
2026-04-22 23:39 42.60103 29.77301 41055 ft 466 kts 76°
2026-04-22 23:40 42.61568 29.85809 41057 ft 466 kts 76°
2026-04-22 23:40 42.63023 29.94339 41047 ft 466 kts 76°
2026-04-22 23:41 42.64478 30.02916 41045 ft 466 kts 76°
2026-04-22 23:41 42.65918 30.11460 41043 ft 467 kts 76°
2026-04-22 23:42 42.67353 30.20026 41045 ft 467 kts 76°
2026-04-22 23:42 42.68780 30.28585 41050 ft 467 kts 76°
2026-04-22 23:43 42.70203 30.37174 41045 ft 467 kts 76°
2026-04-22 23:43 42.71613 30.45722 41047 ft 467 kts 76°
2026-04-22 23:44 42.73009 30.54309 41053 ft 467 kts 78°
2026-04-22 23:44 42.73461 30.63060 41050 ft 467 kts 94°
2026-04-22 23:45 42.72664 30.71800 41053 ft 467 kts 99°
2026-04-22 23:45 42.71780 30.80498 41052 ft 467 kts 99°
2026-04-22 23:46 42.70888 30.89198 41047 ft 467 kts 99°
2026-04-22 23:46 42.69988 30.97918 41045 ft 467 kts 99°
2026-04-22 23:47 42.69084 31.06603 41054 ft 467 kts 99°
2026-04-22 23:47 42.68169 31.15339 41053 ft 467 kts 99°
2026-04-22 23:48 42.67250 31.24036 41046 ft 468 kts 99°
2026-04-22 23:48 42.66325 31.32740 41050 ft 468 kts 99°
2026-04-22 23:49 42.65387 31.41498 41045 ft 468 kts 99°
2026-04-22 23:49 42.64451 31.50168 41051 ft 468 kts 99°
2026-04-22 23:50 42.63503 31.58885 41051 ft 468 kts 99°
2026-04-22 23:50 42.62548 31.67610 41040 ft 469 kts 100°
2026-04-22 23:51 42.61584 31.76352 41046 ft 469 kts 100°
2026-04-22 23:51 42.60617 31.85052 41046 ft 469 kts 100°
2026-04-22 23:52 42.59642 31.93769 41052 ft 469 kts 100°
2026-04-22 23:52 42.58661 32.02495 41053 ft 470 kts 99°
2026-04-22 23:53 42.57683 32.11231 41054 ft 470 kts 100°
2026-04-22 23:53 42.56682 32.19990 41051 ft 470 kts 100°
2026-04-22 23:54 42.55683 32.28679 41045 ft 470 kts 100°
2026-04-22 23:54 42.54670 32.37425 41052 ft 470 kts 100°
2026-04-22 23:55 42.53658 32.46095 41053 ft 469 kts 100°
2026-04-22 23:55 42.52635 32.54814 41050 ft 467 kts 100°
2026-04-22 23:56 42.51618 32.63417 41055 ft 465 kts 100°
2026-04-22 23:56 42.50589 32.72065 41054 ft 465 kts 101°
2026-04-22 23:57 42.49563 32.80626 41052 ft 465 kts 101°
2026-04-22 23:57 42.48520 32.89279 41050 ft 465 kts 101°
2026-04-22 23:58 42.47475 32.97887 41042 ft 466 kts 101°
2026-04-22 23:58 42.46419 33.06535 41054 ft 466 kts 101°
2026-04-22 23:59 42.45361 33.15138 41054 ft 466 kts 101°
2026-04-22 23:59 42.44296 33.23737 41060 ft 466 kts 101°
2026-04-23 00:00 42.42679 33.36684 41055 ft 467 kts 101°
2026-04-23 00:01 42.41590 33.45336 41051 ft 467 kts 101°
2026-04-23 00:01 42.40498 33.53962 41063 ft 467 kts 101°
2026-04-23 00:02 42.39398 33.62602 41056 ft 468 kts 101°
2026-04-23 00:02 42.38299 33.71180 41057 ft 468 kts 102°
2026-04-23 00:03 42.37183 33.79840 41063 ft 468 kts 102°
2026-04-23 00:03 42.36065 33.88458 41064 ft 468 kts 102°
2026-04-23 00:04 42.34938 33.97125 41062 ft 469 kts 102°
2026-04-23 00:04 42.33807 34.05773 41064 ft 469 kts 102°
2026-04-23 00:05 42.32669 34.14419 41060 ft 469 kts 102°
2026-04-23 00:05 42.31524 34.23076 41064 ft 469 kts 102°
2026-04-23 00:06 42.30368 34.31752 41060 ft 469 kts 102°
2026-04-23 00:06 42.29218 34.40336 41062 ft 469 kts 102°
2026-04-23 00:07 42.28050 34.48992 41058 ft 469 kts 102°
2026-04-23 00:07 42.26875 34.57641 41058 ft 469 kts 102°
2026-04-23 00:08 42.25703 34.66223 41050 ft 468 kts 103°
2026-04-23 00:08 42.24520 34.74832 41050 ft 467 kts 103°
2026-04-23 00:09 42.23328 34.83453 41052 ft 468 kts 103°
2026-04-23 00:09 42.22130 34.92051 41054 ft 469 kts 103°
2026-04-23 00:10 42.20928 35.00624 41049 ft 469 kts 103°
2026-04-23 00:10 42.19713 35.09249 41054 ft 469 kts 103°
2026-04-23 00:11 42.18487 35.17898 41055 ft 470 kts 103°
2026-04-23 00:11 42.17261 35.26495 41055 ft 470 kts 103°
2026-04-23 00:12 42.16023 35.35133 41054 ft 470 kts 103°
2026-04-23 00:12 42.14782 35.43750 41051 ft 470 kts 103°
2026-04-23 00:13 42.13541 35.52334 41048 ft 470 kts 103°
2026-04-23 00:13 42.12288 35.60949 41053 ft 471 kts 103°
2026-04-23 00:14 42.11030 35.69558 41044 ft 470 kts 104°
2026-04-23 00:14 42.09760 35.78195 41049 ft 470 kts 104°
2026-04-23 00:15 42.08489 35.86798 41042 ft 470 kts 104°
2026-04-23 00:15 42.07209 35.95411 41040 ft 471 kts 104°
2026-04-23 00:16 42.05924 36.04015 41055 ft 471 kts 104°
2026-04-23 00:16 42.04635 36.12591 41047 ft 472 kts 104°
2026-04-23 00:17 42.03331 36.21228 41048 ft 472 kts 104°
2026-04-23 00:17 42.02018 36.29872 41047 ft 472 kts 104°
2026-04-23 00:18 42.00707 36.38458 41049 ft 472 kts 104°
2026-04-23 00:18 41.99387 36.47062 41046 ft 473 kts 104°
2026-04-23 00:19 41.98053 36.55711 41060 ft 472 kts 104°
2026-04-23 00:19 41.96716 36.64325 41059 ft 473 kts 104°
2026-04-23 00:20 41.95377 36.72917 41055 ft 472 kts 104°
2026-04-23 00:20 41.94024 36.81548 41053 ft 473 kts 104°
2026-04-23 00:21 41.92674 36.90117 41053 ft 473 kts 104°
2026-04-23 00:21 41.91312 36.98719 41060 ft 473 kts 104°
2026-04-23 00:22 41.90343 37.07453 41055 ft 475 kts 93°
2026-04-23 00:22 41.90223 37.16260 41054 ft 476 kts 92°
2026-04-23 00:23 41.90094 37.25091 41047 ft 476 kts 92°
2026-04-23 00:23 41.89957 37.33972 41056 ft 475 kts 92°
2026-04-23 00:24 41.89815 37.42775 41051 ft 475 kts 92°
2026-04-23 00:24 41.89665 37.51649 41054 ft 475 kts 92°
2026-04-23 00:25 41.89509 37.60429 41054 ft 474 kts 92°
2026-04-23 00:25 41.89346 37.69252 41060 ft 474 kts 93°
2026-04-23 00:26 41.89177 37.78031 41051 ft 473 kts 94°
2026-04-23 00:26 41.89000 37.86838 41050 ft 473 kts 93°
2026-04-23 00:27 41.88817 37.95651 41043 ft 473 kts 93°
2026-04-23 00:27 41.88626 38.04475 41048 ft 473 kts 93°
2026-04-23 00:28 41.88429 38.13276 41058 ft 473 kts 93°
2026-04-23 00:28 41.88225 38.22082 41047 ft 473 kts 93°
2026-04-23 00:29 41.88015 38.30864 41054 ft 473 kts 93°
2026-04-23 00:29 41.87798 38.39664 41043 ft 473 kts 93°
2026-04-23 00:30 41.87575 38.48452 41027 ft 473 kts 94°
2026-04-23 00:30 41.87345 38.57239 41051 ft 473 kts 93°
2026-04-23 00:31 41.87108 38.66023 41044 ft 472 kts 94°
2026-04-23 00:31 41.86867 38.74739 41036 ft 471 kts 94°
2026-04-23 00:32 41.86662 38.81926 41041 ft 472 kts 94°
2026-04-23 00:32 41.86531 38.86474 41036 ft 472 kts 94°
2026-04-23 00:33 41.86272 38.95248 41027 ft 472 kts 94°
2026-04-23 00:33 41.86006 39.04044 41030 ft 472 kts 94°
2026-04-23 00:34 41.85735 39.12769 41029 ft 472 kts 94°
2026-04-23 00:34 41.85455 39.21543 40984 ft 473 kts 94°
2026-04-23 00:35 41.85169 39.30351 40998 ft 472 kts 94°
2026-04-23 00:35 41.84878 39.39064 41017 ft 473 kts 94°
2026-04-23 00:36 41.84578 39.47847 40995 ft 472 kts 94°
2026-04-23 00:36 41.84272 39.56659 40971 ft 473 kts 94°
2026-04-23 00:37 41.83962 39.65372 41002 ft 472 kts 95°
2026-04-23 00:37 41.83644 39.74127 40999 ft 472 kts 95°
2026-04-23 00:38 41.83319 39.82914 40995 ft 472 kts 95°
2026-04-23 00:38 41.82987 39.91690 41000 ft 472 kts 95°
2026-04-23 00:39 41.82649 40.00434 40990 ft 472 kts 95°
2026-04-23 00:39 41.82304 40.09212 40993 ft 471 kts 95°
2026-04-23 00:40 41.81951 40.17987 41005 ft 471 kts 95°
2026-04-23 00:40 41.81590 40.26770 41004 ft 473 kts 95°
2026-04-23 00:41 41.81224 40.35540 40996 ft 473 kts 95°
2026-04-23 00:41 41.80848 40.44357 40994 ft 473 kts 95°
2026-04-23 00:42 41.80470 40.53088 40994 ft 473 kts 95°
2026-04-23 00:42 41.80082 40.61870 40996 ft 473 kts 95°
2026-04-23 00:43 41.79674 40.70680 40992 ft 472 kts 96°
2026-04-23 00:43 41.79251 40.79382 40991 ft 472 kts 96°
2026-04-23 00:44 41.78820 40.88129 40989 ft 472 kts 96°
2026-04-23 00:44 41.78380 40.96930 40989 ft 472 kts 96°
2026-04-23 00:45 41.77936 41.05666 40986 ft 472 kts 96°
2026-04-23 00:45 41.77483 41.14439 40981 ft 472 kts 96°
2026-04-23 00:46 41.77029 41.23109 40981 ft 468 kts 96°
2026-04-23 00:46 41.76568 41.31776 40984 ft 466 kts 96°
2026-04-23 00:47 41.76104 41.40389 40983 ft 466 kts 96°
2026-04-23 00:47 41.75631 41.49027 40981 ft 466 kts 96°
2026-04-23 00:48 41.75150 41.57696 40982 ft 465 kts 96°
2026-04-23 00:48 41.74665 41.66321 40978 ft 465 kts 96°
2026-04-23 00:49 41.74173 41.74961 40973 ft 465 kts 96°
2026-04-23 00:49 41.73673 41.83606 40967 ft 465 kts 97°
2026-04-23 00:50 41.73169 41.92218 40949 ft 465 kts 97°
2026-04-23 00:50 41.72654 42.00909 40934 ft 464 kts 97°
2026-04-23 00:51 41.72139 42.09485 40937 ft 463 kts 97°
2026-04-23 00:51 41.71614 42.18106 40938 ft 463 kts 97°
2026-04-23 00:52 41.71084 42.26704 40931 ft 463 kts 97°
2026-04-23 00:52 41.70550 42.35254 40929 ft 463 kts 97°
2026-04-23 00:53 41.70007 42.43850 40930 ft 463 kts 97°
2026-04-23 00:53 41.69458 42.52436 40931 ft 463 kts 97°
2026-04-23 00:54 41.68897 42.61081 40377 ft 475 kts 97°
2026-04-23 00:54 41.68605 42.65545 39833 ft 476 kts 98°
2026-04-23 00:54 41.68317 42.69926 39264 ft 478 kts 98°
2026-04-23 00:54 41.68023 42.74379 38640 ft 481 kts 98°
2026-04-23 00:55 41.67725 42.78859 37986 ft 483 kts 98°
2026-04-23 00:55 41.67426 42.83343 37336 ft 484 kts 97°
2026-04-23 00:55 41.67126 42.87792 36699 ft 485 kts 97°
2026-04-23 00:55 41.66819 42.92324 36190 ft 486 kts 97°
2026-04-23 00:56 41.66512 42.96809 35671 ft 488 kts 97°
2026-04-23 00:56 41.66203 43.01307 35022 ft 491 kts 97°
2026-04-23 00:56 41.65890 43.05838 34145 ft 492 kts 97°
2026-04-23 00:56 41.65575 43.10389 33373 ft 489 kts 96°
2026-04-23 00:57 41.65261 43.14888 32664 ft 485 kts 97°
2026-04-23 00:57 41.64948 43.19351 32067 ft 479 kts 96°
2026-04-23 00:57 41.64636 43.23766 31399 ft 475 kts 96°
2026-04-23 00:57 41.64330 43.28083 30784 ft 469 kts 96°
2026-04-23 00:58 41.64024 43.32372 30171 ft 465 kts 96°
2026-04-23 00:58 41.63715 43.36665 29543 ft 468 kts 96°
2026-04-23 00:58 41.63400 43.41032 28957 ft 465 kts 96°
2026-04-23 00:58 41.63091 43.45290 28311 ft 461 kts 96°
2026-04-23 00:59 41.62786 43.49475 27715 ft 456 kts 96°
2026-04-23 00:59 41.62481 43.53659 27113 ft 452 kts 96°
2026-04-23 00:59 41.62175 43.57845 26496 ft 447 kts 96°
2026-04-23 00:59 41.61876 43.61919 25908 ft 443 kts 96°
2026-04-23 01:00 41.61573 43.66011 25317 ft 439 kts 97°
2026-04-23 01:00 41.61272 43.70067 24736 ft 434 kts 97°
2026-04-23 01:00 41.60975 43.74040 24174 ft 430 kts 97°
2026-04-23 01:00 41.60678 43.78009 23611 ft 426 kts 97°
2026-04-23 01:01 41.60382 43.81934 23044 ft 423 kts 97°
2026-04-23 01:01 41.60088 43.85818 22486 ft 418 kts 97°
2026-04-23 01:01 41.59795 43.89675 21928 ft 415 kts 97°
2026-04-23 01:01 41.59501 43.93530 21379 ft 412 kts 98°
2026-04-23 01:02 41.59211 43.97311 20833 ft 408 kts 98°
2026-04-23 01:02 41.58918 44.01110 20283 ft 404 kts 98°
2026-04-23 01:02 41.58628 44.04857 19750 ft 401 kts 98°
2026-04-23 01:02 41.58339 44.08584 19217 ft 398 kts 98°
2026-04-23 01:03 41.58054 44.12232 18681 ft 396 kts 98°
2026-04-23 01:03 41.57800 44.15894 18172 ft 393 kts 94°
2026-04-23 01:03 41.58045 44.19554 17587 ft 394 kts 77°
2026-04-23 01:03 41.59008 44.22941 17012 ft 386 kts 60°
2026-04-23 01:04 41.60581 44.25811 16424 ft 381 kts 44°
2026-04-23 01:04 41.62632 44.28060 15828 ft 373 kts 31°
2026-04-23 01:04 41.66887 44.31907 14866 ft 368 kts 31°
2026-04-23 01:05 41.68983 44.33810 14400 ft 364 kts 31°
2026-04-23 01:05 41.71107 44.35738 13900 ft 358 kts 31°
2026-04-23 01:05 41.73144 44.37591 13436 ft 351 kts 31°
2026-04-23 01:05 41.75156 44.39420 12980 ft 344 kts 31°
2026-04-23 01:06 41.77100 44.41190 12518 ft 338 kts 31°
2026-04-23 01:06 41.79050 44.42964 12085 ft 332 kts 31°
2026-04-23 01:06 41.80949 44.44694 11762 ft 324 kts 32°
2026-04-23 01:06 41.82828 44.46406 11285 ft 320 kts 32°
2026-04-23 01:07 41.84512 44.48291 10865 ft 318 kts 44°
2026-04-23 01:07 41.86048 44.50452 10422 ft 314 kts 45°
2026-04-23 01:07 41.87554 44.52568 10025 ft 310 kts 45°
2026-04-23 01:07 41.89040 44.54655 9569 ft 308 kts 46°
2026-04-23 01:08 41.90364 44.56890 9159 ft 302 kts 60°
2026-04-23 01:08 41.91077 44.59537 8626 ft 299 kts 82°
2026-04-23 01:08 41.91061 44.62316 8150 ft 294 kts 102°
2026-04-23 01:08 41.90361 44.64856 7486 ft 287 kts 124°
2026-04-23 01:09 41.89079 44.66738 7098 ft 272 kts 136°
2026-04-23 01:09 41.87769 44.68503 7047 ft 250 kts 136°
2026-04-23 01:09 41.86561 44.70076 7057 ft 232 kts 137°
2026-04-23 01:09 41.85427 44.71538 7027 ft 217 kts 137°
2026-04-23 01:10 41.84342 44.72927 6709 ft 215 kts 136°
2026-04-23 01:10 41.83283 44.74281 6405 ft 205 kts 136°
2026-04-23 01:10 41.82267 44.75579 6096 ft 196 kts 136°
2026-04-23 01:10 41.81291 44.76824 5791 ft 189 kts 136°
2026-04-23 01:11 41.80344 44.78032 5493 ft 183 kts 136°
2026-04-23 01:11 41.79443 44.79182 5215 ft 177 kts 136°
2026-04-23 01:11 41.78548 44.80322 4948 ft 176 kts 136°
2026-04-23 01:11 41.77651 44.81465 4671 ft 178 kts 136°
2026-04-23 01:12 41.76752 44.82610 4395 ft 177 kts 135°
2026-04-23 01:12 41.75870 44.83733 4132 ft 177 kts 135°
2026-04-23 01:12 41.74966 44.84885 3850 ft 178 kts 135°
2026-04-23 01:12 41.74076 44.86017 3581 ft 177 kts 135°
2026-04-23 01:13 41.73187 44.87146 3282 ft 171 kts 135°
2026-04-23 01:13 41.72354 44.88203 3043 ft 152 kts 135°
2026-04-23 01:13 41.71635 44.89113 2890 ft 140 kts 135°
2026-04-23 01:13 41.70936 44.90002 2615 ft 134 kts 135°
2026-04-23 01:14 41.70274 44.90844 2401 ft 131 kts 135°
2026-04-23 01:14 41.69593 44.91711 2187 ft 131 kts 136°
2026-04-23 01:14 41.68927 44.92558 1987 ft 131 kts 136°
2026-04-23 01:14 41.68269 44.93394 1787 ft 133 kts 136°
2026-04-23 01:15 41.67592 44.94253 1598 ft 132 kts 136°
2026-04-23 01:15 41.67004 44.94998 1541 ft 105 kts 139°
2026-04-23 01:15 41.66664 44.95446 1538 ft 47 kts 137°
2026-04-23 01:15 41.66430 44.95728 1533 ft 44 kts 135°
2026-04-23 01:16 41.66221 44.95995 1525 ft 39 kts 135°
2026-04-23 01:16 41.66039 44.96227 1524 ft 28 kts 139°
2026-04-23 01:16 41.65918 44.96368 1523 ft 22 kts 139°
2026-04-23 01:16 41.65851 44.96539 1516 ft 10 kts 72°
2026-04-23 01:17 41.65911 44.96605 1517 ft 12 kts 356°
2026-04-23 01:17 41.65980 44.96549 1522 ft 11 kts 317°
2026-04-23 01:17 41.66038 44.96476 1526 ft 11 kts 316°
2026-04-23 01:17 41.66099 44.96398 1527 ft 13 kts 317°
2026-04-23 01:18 41.66171 44.96308 1529 ft 15 kts 319°
2026-04-23 01:18 41.66273 44.96294 1532 ft 15 kts
2026-04-23 01:18 41.66375 44.96326 1538 ft 14 kts 13°
2026-04-23 01:18 41.66462 44.96355 1546 ft 11 kts 13°
2026-04-23 01:19 41.66526 44.96376 1552 ft 7 kts 15°
2026-04-23 01:19 41.66564 44.96389 1556 ft 3 kts 15°
2026-04-23 01:19 41.66590 44.96398 1560 ft 4 kts 13°
2026-04-23 01:19 41.66629 44.96410 1565 ft 7 kts 13°
2026-04-23 01:20 41.66681 44.96426 1568 ft 7 kts 14°
2026-04-23 01:20 41.66734 44.96444 1570 ft 8 kts 23°
2026-04-23 01:20 41.66778 44.96493 1572 ft 3 kts 43°
2026-04-23 01:20 41.66798 44.96520 1573 ft 0 kts 44°
2026-04-23 01:21 41.66799 44.96521 1573 ft 0 kts 42°